COSMOS 2251 DEB, 34997

Orbit data source: Space-Track

COSMOS 2251 DEB, 34997 is space debris in LEO originally from a launch on Wed, 16 Jun 1993 UTC launched from the Plesetsk Missile And Space Complex (PKMTR). The debris from Iridium 33, an American commercial communications satellite, has been tracked extensively since its accidental collision with the defunct Russian satellite Cosmos 2251 in 2009. This event, occurring at high speed in low Earth orbit (LEO), generated thousands of pieces of space debris, significantly increasing the risk of further collisions. The Iridium 33 debris cloud has impacted space traffic management and orbital debris mitigation strategies, making it a subject of ongoing study in space situational awareness.

Loading next visibility...
Identifier
34997, 1993-036AFV
Orbit
LEO
Country
Flag of CISCIS
Related business
Manufacturer
Unknown
Mission
Spacecraft
Bus & Motor
Unknown
Mass
Unknown
Launch date (UTC)
1993-06-16 (33 years ago)
Launch vehicle
Unknown
Launch site
Plesetsk Missile And Space Complex (PKMTR)
Object type
Payload
Rocket body
Debris
Shape & HBR
Unknown shape, 0.1 m
Radar Cross Section
Small (<0.1 m²)

Expand to show TLE details & history
Last TLE update: 5 days ago

TLE from 5 days ago
0 COSMOS 2251 DEB
1 34997U 93036AFV 26203.87049405  .00003230  00000-0  84009-3 0  9995
2 34997  73.8776 252.1940 0090121 183.4913 176.5629 14.47644204739592
Epoch: 2026-07-22T20:53Z
TLE epoch observation values (Epoch: 2026-07-22T20:53:30.685Z)
Latitude
-0.00003°
Longitude
-1.80349°
Altitude
799.957 km
Speed
7.42 km/s
True Right ascension
16h 48m 46s
True Declination
0° 00' 00"
Sunlit
Object was in full shadow at epoch
Visualization orbit readout
Latitude
Unknown
Longitude
Unknown
Altitude
Unknown
Speed
Unknown
Apparent Right ascension
Unknown
Apparent Declination
Unknown
Sunlit
N/A
Visualization observer readout
Local Sidereal Time
08:33:28
Azimuth
Unknown
Elevation
Unknown
Doppler factor
Unknown
Orbital elements
Apogee altitude
795.046 km
Perigee altitude
666.91 km
Semi-major axis
7,109.115 km
Eccentricity
0.00901
Inclination
73.8776°
RAAN
252.194°
Arg. of periapsis
183.4913°
True anomaly
176.62413°
Mean anomaly
176.5629°
Eccentric anomaly
176.59358°
Mean motion
3.62093 °/min
Orbital period
99.42 mins
BSTAR
0.00084009
Loading maneuver chart data...
Computing Atmospheric mass density...

Documentation

Showing up to 5 results
|